Location: Ohmer (historical)
(38.0096°N, 122.0227°W)
Time: 04:56:43
(UTC+00:00)

Cosmos 372 Rocket - Pass Details

Date: 14 February 2026
Orbit: 733 x 763 km, 74.1° (Epoch: 5 March)

Event Time Altitude Azimuth Distance (km) Brightness Sun altitude
Rises 13:58:00 0° 196° (SSW) 3,143 7.1 -12.6°
Reaches altitude 10° 14:00:19 10° 197° (SSW) 2,227 6.3 -12.2°
Maximum altitude 14:05:22 90° 116° (ESE) 742 3.9 -11.2°
Drops below altitude 10° 14:10:29 10° 18° (NNE) 2,256 6.6 -10.2°
Sets 14:12:51 0° 19° (NNE) 3,188 7.3 -9.7°
